Vertical_Velocity
-2 -7 -1 -4 23 4 8 11 -1 7 -1 -0 -5 -2 1 3 9 -2 0 -0 -1 -1 1 1 0 -1 -1 -3 -0 1 9 6 -1 -1 1 1 0 1 1 0 0 0 1 6
-2 1 -2 -1 7 -2 2 -5 -1 -2 8 3 -7 -4 -4 -2 2 10 3 4 2 1 -0 2 -1 8 0 -0 1 -0 6 2 -1 -1 3 0 0 0 -1 -1 -2 -0 -1 2
-8 8 -0 -7 5 3 4 -2 -3 0 -9 4 5 0 -0 -4 -4 1 19 6 -1 4 3 -3 -1 5 1 -2 -0 -0 0 -0 -2 -1 1 1 1 0 1 -0 -1 -2 -0 1
10 22 -1 2 6 11 1 -5 -2 -7 2 -4 -0 -1 3 1 -5 0 0 13 2 -3 2 -0 0 6 0 1 -0 1 1 -1 0 1 1 -2 6 8 3 1 0 -1 -2 -0
42 32 -4 1 -5 -2 1 18 -3 -1 1 0 -2 1 -2 -2 -3 2 5 6 12 37 -5 3 1 -1 1 4 2 3 0 -3 -1 2 -0 8 2 4 4 1 -1 -1 1 -1
11 35 11 13 1 -1 1 -11 1 -2 -4 -3 -0 -0 -2 -4 -1 -2 3 7 -0 14 58 2 21 -1 -0 -3 -0 7 3 6 32 12 -3 1 1 4 11 1 1 1 -1 0
12 10 -8 6 4 5 -2 -5 -5 -3 -3 -3 -2 -1 1 -7 2 1 1 -3 3 -2 6 31 30 45 3 -4 4 -3 -2 -3 -6 -3 -1 -1 -5 -1 16 -0 -2 -0 1 -1
5 7 4 -3 -1 0 0 -1 -4 -2 -3 -4 -2 1 -1 -2 -5 1 5 -1 4 3 6 -2 2 7 1 35 58 21 -1 -4 -2 4 1 -0 2 3 1 17 -2 -4 -2 -0
2 5 -0 -4 -2 -3 -4 -3 -2 -2 -3 -2 -1 0 -1 1 -5 5 4 0 2 1 1 1 1 3 0 1 -1 4 1 6 22 40 38 32 22 15 11 18 9 3 2 9
3 -2 -1 0 -3 -2 -4 -4 -2 -1 1 0 -1 -2 -0 -0 0 5 5 7 6 5 -1 -3 -2 -0 1 -0 0 -2 -3 0 2 2 1 2 -3 1 -0 6 1 8 7 7
-0 -2 -0 1 -2 -2 -2 -3 -2 -0 2 -1 0 2 -0 1 0 5 4 2 3 8 8 3 1 -1 1 1 0 -0 1 1 2 3 3 2 -1 -2 -1 -5 -1 -2 -2 -2
-1 -2 2 1 -5 3 -0 2 -2 -1 2 2 2 2 3 1 -1 1 -1 -0 4 4 -3 1 2 3 3 1 1 3 3 3 1 0 -2 -4 -3 -2 -2 -2 -2 -1 0 -3
-5 3 6 -4 10 1 0 0 0 2 2 1 2 3 4 5 0 -0 2 2 2 3 7 8 1 1 3 4 4 2 -1 -1 -1 -1 -2 -0 -2 -0 1 -0 -0 2 1 1
6 6 1 2 1 4 3 4 0 2 3 1 1 1 2 2 2 1 2 3 1 2 2 1 -1 -1 0 0 -1 -3 -1 -1 -2 -3 -2 -2 -1 -1 -2 -2 -2 -3 -1 0
5 2 -0 1 1 3 2 1 0 1 0 2 2 1 0 0 -1 -0 0 -1 -2 -2 -1 1 3 1 2 -3 -2 -1 -0 0 1 1 0 -0 -1 -1 -1 -1 -1 -0 -1 -1
3 3 2 1 1 1 0 -1 0 1 1 0 -0 -1 -1 -1 0 0 -0 -0 -1 -2 -1 -1 1 1 1 1 1 1 1 -1 -1 -1 -1 -1 0 1 1 1 1 2 1 -0
3 0 -0 2 -0 -2 -2 -1 -0 -1 -2 -2 -1 -1 -1 -1 -1 -1 -1 -1 -0 0 -1 -1 -1 -0 1 0 -0 0 1 -0 1 0 0 0 0 -1 -2 -1 0 -1 -2 -1
-0 0 -0 -2 -1 -1 -2 -3 -3 -2 -2 -1 -0 -0 -2 -2 -2 -1 -1 -1 -1 -1 -1 -1 -1 -2 -2 -2 -1 -0 -1 -1 -1 -0 -1 -1 -0 -0 -0 0 0 1 -0 -1
-0 -2 -3 -4 -3 -2 -2 -2 -2 -2 -1 -1 -2 -2 -1 -1 -1 -1 -1 -1 -1 -1 -1 -2 -2 -2 -2 -3 -2 -1 -1 -2 -1 -0 -0 0 -0 -1 -1 -1 -2 -2 -2 -3
0 1 1 0 -1 -1 -1 -2 -2 -2 -2 -2 -2 -2 -2 -2 -3 -3 -2 -2 -1 -0 0 1 1 1 1 -0 0 0 -0 -1 -0 0 -1 -0 -1 -1 -1 -1 -1 0 0 0
-3 -5 -4 -2 -2 -2 -2 -1 -1 -1 -1 -1 -0 0 -0 -0 -1 -1 -0 -0 -1 0 0 -0 -0 0 0 -0 -0 -1 -0 -1 -1 -1 -1 -1 -2 -1 -1 -1 -2 -2 -2 -1
-3 -1 -0 0 -0 -0 -0 -0 -0 -0 -0 0 -0 -0 -0 -0 -0 -0 -0 1 -1 -1 -0 -0 -1 -1 -1 -1 -1 -1 -1 -1 -1 -0 -0 -1 -0 0 -1 -1 -1 -1 -1 -2
0 -1 -1 -1 -1 -1 -0 -0 -1 -1 -1 -1 -0 -0 0 0 0 -0 1 -1 1 -1 2 1 1 1 0 0 1 1 1 1 1 0 -0 -1 -1 -2 -1 -1 -3 -2 -2 -2
-1 -1 -2 -2 -1 -1 -0 -1 -1 -1 -1 -1 -1 -2 -2 -1 -1 -1 0 1 1 1 1 1 -0 -0 -0 -1 -1 -1 -1 -1 -2 -2 -2 -2 -2 -2 -3 -2 -2 -2 -2 -3
-0 -1 -2 -1 -0 -2 -2 -2 -1 -2 -2 -2 -3 -1 -1 -1 0 1 -1 -1 -2 -2 -1 -2 -1 -1 -0 -0 -1 -1 -2 -2 -2 -2 -2 -1 -2 -2 -2 -2 -2 -3 -2 -1
-3 -3 -2 -3 -3 -2 -1 -1 -2 1 -1 1 1 -1 0 -1 -2 -1 -1 -1 1 -1 -1 0 -1 -1 -1 -1 -1 -1 -1 -0 -1 -1 -1 -1 -2 -2 -2 -2 -2 -2 -2 -2
-1 -1 -1 -1 -3 -1 -1 -1 -1 -1 0 -3 -4 1 -1 -0 -1 -1 -0 0 -1 -0 -0 0 1 -0 -1 -1 -1 -1 -1 -1 -1 -1 -1 -2 -2 -2 -2 -2 -2 -2 -2 -2
Height
5548 5552 5556 5561 5563 5567 5569 5571 5574 5577 5577 5578 5577 5580 5581 5583 5583 5584 5587 5591 5598 5604 5609 5614 5619 5622 5627 5633 5638 5642 5648 5651 5653 5656 5658 5660 5662 5663 5664 5666 5667 5668 5669 5672
5539 5545 5549 5554 5555 5559 5562 5565 5567 5570 5574 5573 5574 5577 5578 5578 5579 5581 5582 5586 5591 5598 5603 5607 5611 5616 5620 5626 5631 5635 5640 5642 5646 5650 5653 5654 5656 5657 5658 5660 5661 5662 5663 5666
5535 5540 5543 5547 5551 5553 5556 5559 5562 5565 5566 5568 5571 5572 5575 5575 5576 5575 5577 5581 5584 5591 5596 5600 5604 5609 5613 5618 5623 5627 5631 5633 5637 5642 5645 5648 5649 5650 5652 5654 5655 5655 5656 5658
5528 5533 5537 5541 5544 5546 5550 5552 5556 5558 5560 5563 5566 5567 5570 5571 5573 5571 5572 5575 5579 5583 5588 5593 5597 5602 5607 5611 5615 5619 5622 5625 5629 5633 5637 5639 5641 5642 5643 5645 5647 5649 5650 5651
5517 5526 5532 5535 5539 5542 5546 5551 5551 5554 5556 5558 5561 5563 5566 5567 5567 5567 5567 5569 5569 5575 5580 5586 5590 5594 5598 5604 5608 5611 5615 5618 5621 5624 5626 5628 5631 5633 5635 5635 5638 5640 5642 5642
5518 5523 5527 5533 5535 5538 5541 5543 5547 5549 5552 5553 5556 5559 5561 5562 5563 5563 5563 5564 5566 5566 5572 5576 5583 5586 5591 5595 5598 5602 5606 5611 5609 5615 5619 5620 5622 5624 5625 5626 5628 5630 5633 5634
5516 5519 5524 5528 5531 5534 5538 5542 5543 5545 5548 5549 5551 5553 5554 5557 5558 5558 5558 5559 5561 5562 5561 5561 5574 5570 5577 5583 5589 5592 5596 5601 5603 5605 5607 5609 5611 5613 5614 5615 5618 5619 5622 5623
5516 5519 5523 5526 5529 5532 5534 5535 5538 5541 5543 5545 5546 5548 5549 5551 5553 5552 5553 5553 5554 5555 5557 5560 5564 5567 5571 5568 5575 5581 5585 5586 5589 5591 5593 5595 5598 5599 5601 5600 5601 5606 5606 5608
5516 5517 5519 5523 5526 5528 5530 5532 5534 5536 5538 5540 5541 5542 5544 5546 5548 5548 5547 5548 5550 5552 5554 5556 5558 5560 5563 5565 5568 5570 5573 5574 5573 5577 5580 5581 5584 5584 5586 5588 5587 5589 5590 5591
5512 5514 5517 5519 5521 5523 5526 5528 5529 5531 5532 5535 5536 5537 5539 5541 5542 5544 5543 5543 5545 5548 5550 5553 5554 5556 5558 5560 5562 5564 5565 5566 5567 5568 5569 5571 5573 5574 5574 5576 5578 5579 5580 5580
5510 5512 5514 5515 5517 5519 5521 5522 5524 5525 5527 5529 5532 5534 5535 5536 5538 5539 5540 5541 5543 5545 5547 5549 5550 5552 5552 5554 5555 5556 5558 5559 5560 5561 5562 5563 5563 5564 5566 5568 5569 5570 5570 5571
5509 5510 5512 5513 5513 5514 5516 5517 5519 5521 5522 5524 5528 5529 5530 5531 5533 5534 5536 5538 5539 5541 5541 5542 5544 5545 5547 5548 5549 5550 5550 5551 5552 5553 5554 5554 5556 5557 5559 5560 5560 5560 5560 5560
5505 5508 5509 5511 5512 5513 5514 5515 5516 5518 5519 5520 5522 5525 5526 5527 5528 5530 5531 5532 5534 5535 5537 5537 5538 5539 5540 5541 5542 5543 5545 5544 5545 5546 5547 5547 5547 5548 5548 5548 5548 5547 5547 5547
5502 5505 5507 5508 5510 5511 5512 5513 5513 5515 5516 5517 5518 5519 5520 5522 5523 5525 5526 5527 5528 5529 5530 5531 5532 5533 5533 5534 5535 5535 5535 5536 5536 5537 5537 5537 5537 5537 5536 5536 5536 5535 5534 5532
5501 5504 5506 5507 5508 5509 5510 5511 5511 5512 5513 5514 5515 5515 5516 5516 5517 5517 5518 5519 5520 5521 5522 5522 5523 5523 5524 5524 5524 5524 5524 5524 5524 5523 5524 5524 5524 5523 5523 5523 5522 5520 5519 5517
5501 5503 5505 5506 5508 5508 5509 5509 5509 5510 5510 5511 5511 5512 5512 5512 5511 5512 5511 5512 5512 5513 5513 5514 5513 5513 5513 5512 5512 5512 5512 5511 5511 5511 5511 5510 5509 5509 5507 5506 5505 5503 5501 5500
5501 5503 5504 5505 5506 5507 5507 5507 5507 5507 5507 5507 5507 5506 5506 5505 5505 5505 5504 5504 5504 5503 5503 5503 5502 5502 5502 5501 5500 5500 5499 5498 5496 5495 5495 5494 5493 5492 5490 5489 5487 5485 5483 5481
5500 5501 5502 5503 5503 5503 5503 5503 5502 5502 5501 5500 5499 5499 5498 5498 5497 5496 5495 5494 5493 5493 5492 5491 5491 5490 5489 5488 5487 5486 5485 5484 5482 5481 5479 5478 5476 5475 5473 5471 5469 5467 5464 5461
5499 5499 5500 5500 5499 5498 5497 5496 5495 5494 5493 5492 5491 5489 5488 5486 5485 5484 5483 5482 5481 5480 5479 5478 5477 5476 5474 5473 5472 5471 5469 5467 5466 5464 5462 5460 5458 5456 5454 5452 5449 5447 5445 5441
5496 5495 5494 5493 5492 5490 5489 5487 5486 5484 5483 5481 5479 5478 5476 5475 5473 5471 5470 5468 5467 5465 5463 5462 5461 5459 5458 5456 5455 5453 5452 5450 5448 5446 5444 5442 5440 5437 5435 5432 5429 5427 5423 5420
5491 5490 5488 5487 5485 5483 5481 5480 5478 5476 5473 5471 5469 5467 5465 5462 5460 5458 5456 5454 5452 5450 5448 5446 5444 5443 5441 5439 5437 5435 5434 5431 5429 5427 5425 5423 5421 5418 5415 5412 5410 5406 5403 5400
5486 5484 5483 5480 5478 5476 5473 5470 5468 5465 5462 5459 5456 5454 5451 5448 5446 5443 5441 5438 5436 5433 5431 5429 5426 5424 5422 5420 5418 5416 5414 5412 5410 5408 5406 5403 5401 5398 5395 5392 5389 5386 5382 5379
5481 5478 5476 5473 5470 5467 5464 5460 5457 5453 5450 5446 5443 5440 5436 5433 5430 5428 5425 5422 5419 5417 5414 5412 5409 5407 5405 5403 5400 5398 5396 5394 5392 5389 5386 5383 5380 5377 5374 5371 5367 5363 5360 5355
5475 5472 5469 5466 5462 5458 5454 5450 5446 5442 5437 5433 5429 5425 5422 5418 5415 5411 5408 5405 5402 5399 5397 5394 5391 5388 5386 5384 5381 5378 5376 5373 5370 5368 5365 5361 5358 5355 5351 5347 5343 5339 5335 5331
5469 5465 5461 5456 5452 5447 5443 5438 5433 5428 5423 5419 5414 5410 5406 5402 5398 5395 5391 5387 5383 5380 5377 5373 5370 5367 5365 5362 5359 5356 5354 5351 5348 5345 5342 5339 5335 5332 5328 5324 5320 5316 5312 5307
5460 5456 5451 5446 5441 5436 5430 5424 5419 5414 5408 5403 5399 5393 5389 5384 5380 5376 5371 5367 5364 5360 5356 5353 5350 5347 5343 5341 5338 5335 5333 5330 5327 5324 5321 5318 5315 5312 5308 5305 5301 5297 5293 5290
5451 5446 5440 5434 5428 5422 5416 5410 5404 5398 5393 5387 5382 5376 5370 5365 5359 5355 5350 5346 5342 5338 5335 5331 5328 5325 5322 5320 5318 5315 5313 5311 5308 5306 5304 5301 5299 5296 5293 5290 5286 5283 5279 5275